Time,TemperatureF,DewpointF,PressureIn,WindDirection,WindDirectionDegrees,WindSpeedMPH,WindSpeedGustMPH,Humidity,HourlyPrecipIn,Conditions,Clouds,dailyrainin,SoftwareType,DateUTC
2013-05-13 09:25:00,51.6,32.5,29.94,West,273,3.0,7.0,48,0.00,,,0.00,Wunderground v.1.15,2013-05-13 13:25:00,
2013-05-13 09:30:00,51.8,32.2,29.94,WNW,292,4.0,8.0,47,0.00,,,0.00,Wunderground v.1.15,2013-05-13 13:30:00,
2013-05-13 09:35:00,51.8,31.7,29.94,NW,315,5.0,5.0,46,0.00,,,0.00,Wunderground v.1.15,2013-05-13 13:35:00,
2013-05-13 09:40:00,52.0,31.3,29.94,WNW,286,5.0,6.0,45,0.00,,,0.00,Wunderground v.1.15,2013-05-13 13:40:00,
2013-05-13 09:45:00,52.3,32.1,29.94,WNW,296,4.0,9.0,46,0.00,,,0.00,Wunderground v.1.15,2013-05-13 13:45:00,
2013-05-13 09:55:00,53.0,31.1,29.94,NW,312,4.0,8.0,43,0.00,,,0.00,Wunderground v.1.15,2013-05-13 13:55:00,
2013-05-13 10:05:00,53.0,31.1,29.94,WNW,294,4.0,5.0,43,0.00,,,0.00,Wunderground v.1.15,2013-05-13 14:05:00,
2013-05-13 10:15:00,52.8,31.5,29.95,SW,236,4.0,7.0,44,0.00,,,0.00,Wunderground v.1.15,2013-05-13 14:15:00,
2013-05-13 10:25:00,53.9,32.5,29.94,NW,305,2.0,3.0,44,0.00,,,0.00,Wunderground v.1.15,2013-05-13 14:25:00,
2013-05-13 10:30:00,54.3,32.3,29.94,SSE,158,2.0,2.0,43,0.00,,,0.00,Wunderground v.1.15,2013-05-13 14:30:00,
2013-05-13 10:35:00,54.9,32.2,29.94,NW,318,2.0,5.0,42,0.00,,,0.00,Wunderground v.1.15,2013-05-13 14:35:00,
2013-05-13 10:45:00,54.7,31.4,29.95,West,274,3.0,4.0,41,0.00,,,0.00,Wunderground v.1.15,2013-05-13 14:45:00,
2013-05-13 10:55:00,55.1,31.2,29.95,WNW,296,3.0,7.0,40,0.00,,,0.00,Wunderground v.1.15,2013-05-13 14:55:00,
2013-05-13 11:05:00,54.7,31.4,29.95,West,269,4.0,9.0,41,0.00,,,0.00,Wunderground v.1.15,2013-05-13 15:05:00,
2013-05-13 11:10:00,54.5,31.3,29.95,NW,306,4.0,4.0,41,0.00,,,0.00,Wunderground v.1.15,2013-05-13 15:10:00,
2013-05-13 11:15:00,54.4,30.6,29.95,NW,306,3.0,4.0,40,0.00,,,0.00,Wunderground v.1.15,2013-05-13 15:15:00,
2013-05-13 11:25:00,54.6,30.7,29.95,West,276,4.0,6.0,40,0.00,,,0.00,Wunderground v.1.15,2013-05-13 15:25:00,
2013-05-13 11:35:00,54.4,30.6,29.95,WNW,290,4.0,5.0,40,0.00,,,0.00,Wunderground v.1.15,2013-05-13 15:35:00,
2013-05-13 11:45:00,54.8,30.9,29.95,NW,315,3.0,5.0,40,0.00,,,0.00,Wunderground v.1.15,2013-05-13 15:45:00,
2013-05-13 11:55:00,55.7,30.5,29.95,WNW,294,3.0,4.0,38,0.00,,,0.00,Wunderground v.1.15,2013-05-13 15:55:00,
2013-05-13 12:00:00,55.9,31.3,29.95,WSW,238,3.0,3.0,39,0.00,,,0.00,Wunderground v.1.15,2013-05-13 16:00:00,
2013-05-13 12:05:00,56.3,31.0,29.94,South,183,3.0,3.0,38,0.00,,,0.00,Wunderground v.1.15,2013-05-13 16:05:00,
2013-05-13 12:15:00,57.1,31.0,29.94,WSW,250,4.0,5.0,37,0.00,,,0.00,Wunderground v.1.15,2013-05-13 16:15:00,
2013-05-13 12:25:00,57.4,31.3,29.94,WSW,254,4.0,4.0,37,0.00,,,0.00,Wunderground v.1.15,2013-05-13 16:25:00,
2013-05-13 12:35:00,57.7,29.5,29.94,NW,305,3.0,8.0,34,0.00,,,0.00,Wunderground v.1.15,2013-05-13 16:35:00,
2013-05-13 12:40:00,57.6,30.8,29.94,NW,309,4.0,4.0,36,0.00,,,0.00,Wunderground v.1.15,2013-05-13 16:40:00,
2013-05-13 12:45:00,57.2,30.5,29.94,SSW,194,5.0,5.0,36,0.00,,,0.00,Wunderground v.1.15,2013-05-13 16:45:00,
2013-05-13 12:55:00,58.2,30.7,29.94,WSW,257,3.0,4.0,35,0.00,,,0.00,Wunderground v.1.15,2013-05-13 16:55:00,
2013-05-13 13:05:00,58.5,30.2,29.94,West,279,5.0,9.0,34,0.00,,,0.00,Wunderground v.1.15,2013-05-13 17:05:00,
2013-05-13 13:15:00,58.9,30.6,29.94,NW,305,3.0,5.0,34,0.00,,,0.00,Wunderground v.1.15,2013-05-13 17:15:00,
2013-05-13 13:25:00,59.2,30.8,29.94,NW,325,3.0,3.0,34,0.00,,,0.00,Wunderground v.1.15,2013-05-13 17:25:00,
2013-05-13 13:35:00,59.4,29.5,29.94,WNW,294,3.0,3.0,32,0.00,,,0.00,Wunderground v.1.15,2013-05-13 17:35:00,
2013-05-13 13:40:00,59.0,29.9,29.94,WNW,287,2.0,2.0,33,0.00,,,0.00,Wunderground v.1.15,2013-05-13 17:40:00,
2013-05-13 13:50:00,59.8,30.6,29.94,West,271,3.0,4.0,33,0.00,,,0.00,Wunderground v.1.15,2013-05-13 17:50:00,
2013-05-13 14:00:00,60.2,30.2,29.94,WNW,297,3.0,3.0,32,0.00,,,0.00,Wunderground v.1.15,2013-05-13 18:00:00,
2013-05-13 14:05:00,60.4,30.4,29.94,WNW,296,4.0,5.0,32,0.00,,,0.00,Wunderground v.1.15,2013-05-13 18:05:00,
2013-05-13 14:10:00,60.7,31.4,29.94,WNW,288,3.0,11.0,33,0.00,,,0.00,Wunderground v.1.15,2013-05-13 18:10:00,
2013-05-13 14:20:00,60.2,29.4,29.93,West,273,4.0,4.0,31,0.00,,,0.00,Wunderground v.1.15,2013-05-13 18:20:00,
2013-05-13 14:30:00,59.8,29.1,29.93,NNE,26,4.0,4.0,31,0.00,,,0.00,Wunderground v.1.15,2013-05-13 18:30:00,
2013-05-13 14:35:00,59.7,29.0,29.93,WNW,286,5.0,7.0,31,0.00,,,0.00,Wunderground v.1.15,2013-05-13 18:35:00,